Location: Domont
(49.0278°N, 2.3264°E)
Time: 14:45:15
(UTC+00:00)

POLYITAN 1 - Visible Passes

Search period start: 25 June 2022 00:00
Search period end: 05 July 2022 00:00
Orbit: 585 x 607 km, 98.0° (Epoch: 24 June)

Date Brightness Start Highest point End Pass type
(mag) Time Alt. Az. Time Alt. Az. Time Alt. Az.
25 Jun ? 00:21:35 10° ENE 00:23:11 12° E 00:24:47 10° ESE visible
25 Jun ? 01:55:08 10° NNE 01:59:22 80° WNW 02:02:30 18° SSW visible
26 Jun ? 00:30:46 10° NE 00:33:13 15° E 00:35:39 10° SE visible
26 Jun ? 02:05:04 10° N 02:09:14 63° WNW 02:12:30 16° SSW visible
27 Jun ? 00:40:14 10° NE 00:43:13 18° E 00:45:50 11° SE visible
27 Jun ? 02:15:02 10° N 02:19:07 50° WNW 02:22:30 15° SW visible
28 Jun ? 00:49:49 10° NE 00:53:12 23° E 00:55:50 13° SE visible
28 Jun ? 02:25:00 10° N 02:28:58 41° WNW 02:32:29 13° SW visible
29 Jun ? 00:59:29 10° NE 01:03:10 28° E 01:05:49 15° SE visible
29 Jun ? 02:35:01 10° N 02:38:48 33° WNW 02:42:28 11° SW visible
30 Jun ? 01:09:13 10° NNE 01:13:06 35° E 01:15:47 17° SSE visible
30 Jun ? 02:45:03 10° N 02:48:37 27° WNW 02:52:12 10° WSW visible
01 Jul ? 01:18:59 10° NNE 01:23:02 43° E 01:25:46 19° SSE visible
01 Jul ? 02:55:07 10° NNW 02:58:25 23° WNW 03:01:44 10° WSW visible
02 Jul ? 01:28:47 10° NNE 01:32:57 55° E 01:35:44 20° S visible
02 Jul ? 03:05:14 10° NNW 03:08:12 19° WNW 03:11:11 10° WSW visible
03 Jul ? 01:38:36 10° NNE 01:42:51 69° ESE 01:45:42 20° S visible
04 Jul ? 01:48:27 10° NNE 01:52:43 87° E 01:55:39 20° SSW visible
